STARLINK-34218, 64338

Orbit data source: Space-Track

STARLINK-34218, 64338 is a payload satellite owned by SpaceX/Seattle (US) in LEO that was launched on Tue, 10 Jun 2025 UTC via an FALCON 9 launch vehicle from the Air Force Eastern Test Range (AFETR). Payload-class satellites include a variety of spacecraft equipped with specific instruments for various scientific and technological missions. These include communications satellites like Starlink; space stations such as the ISS; scientific satellites like the Hubble; Earth observation satellites from companies like Planet Labs, Umbra, and HawkEye 360; GPS; miniature CubeSats for education and research; and military/defense satellites.

Loading next visibility...
Identifier
64338, 2025-124X
Orbit
LEO
Country
Flag of USUS
Related business
Manufacturer
SpaceX/Seattle
Mission
Operational Commercial Communications
Bus & Motor
STARLINK V2MO, Unknown motor
Mass
575 kg wet, ~530 kg dry
Launch date (UTC)
2025-06-10 (11 months ago)
Launch vehicle
FALCON 9
Launch site
Air Force Eastern Test Range (AFETR)
Object type
Payload
Rocket body
Debris
Shape & HBR
Box + 2 Pan, 17.7 m
Radar Cross Section
36.964 m², Large (>1 m²)

Expand to show TLE details & history
Last TLE update: 9 hours ago

TLE from 9 hours ago
0 STARLINK-34218
1 64338U 25124X   26119.89633485  .00025718  00000-0  94044-3 0  9990
2 64338  43.0016 188.9034 0000972 285.4661  74.6083 15.27593794 49657
Epoch: 2026-04-29T21:30Z
TLE epoch observation values (Epoch: 2026-04-29T21:30:43.331Z)
Latitude
-0.00002°
Longitude
8.37212°
Altitude
482.606 km
Speed
7.626 km/s
True Right ascension
12h 35m 36s
True Declination
0° 00' 00"
Sunlit
Object was in full shadow at epoch
Visualization orbit readout
Latitude
Unknown
Longitude
Unknown
Altitude
Unknown
Speed
Unknown
Apparent Right ascension
Unknown
Apparent Declination
Unknown
Sunlit
N/A
Visualization observer readout
Local Sidereal Time
13:38:21
Azimuth
Unknown
Elevation
Unknown
Doppler factor
Unknown
Orbital elements
Apogee altitude
485.62 km
Perigee altitude
484.286 km
Semi-major axis
6,863.09 km
Eccentricity
0.0001
Inclination
43.0016°
RAAN
188.9034°
Arg. of periapsis
285.4661°
True anomaly
74.61904°
Mean anomaly
74.6083°
Eccentric anomaly
74.61367°
Mean motion
3.81736 °/min
Orbital period
94.31 mins
BSTAR
0.00094044
Loading maneuver chart data...
Computing Atmospheric mass density...
Loading historical data...
Loading historical data...
Loading historical data...
Loading historical data...
Loading historical data...
Loading historical data...
Loading historical data...

Documentation

Showing up to 5 results
|